{"data":{"norad_id":53396,"intl_designator":"2022-097J","name":"STARLINK-4524","alt_names":[],"object_type":"PAYLOAD","status":"ACTIVE","operator":null,"country":"US","launch_date":"2022-08-10","launch_site_code":"AFETR","launch_vehicle":null,"mission":null,"orbit_class":"UNKNOWN","rcs_meters":null,"size_class":null,"mass_kg":null,"dimensions":null,"purposes":["comms"],"wikipedia_slug":null,"has_3d_model":false,"image_url":null,"decayed_at":null,"tle_current":{"epoch":"2026-05-25T03:03:50.223168Z","epoch_age_seconds":74187,"freshness":"FRESH","line1":"1 53396U 22097J   26145.12766462  .00001092  00000+0  86665-4 0  9994","line2":"2 53396  53.2151 140.9771 0001075  80.6412 279.4701 15.08844150210052","mean_motion":15.0884415,"eccentricity":0.0001075,"inclination_deg":53.2151,"raan_deg":140.9771,"arg_perigee_deg":80.6412,"mean_anomaly_deg":279.4701,"bstar":8.6665e-5,"rev_number":21005,"period_min":95.437292181568,"perigee_km":538.98703332522,"apogee_km":540.4743748816,"semimajor_km":6917.8677041034,"source":"CELESTRAK","updated_at":"2026-05-25T13:38:17.396648Z"}}}